Regional Weather Roundup
Issued by NWS State College, PA

Home | Current Version | Previous Version | Text Only | Print | Product List | Glossary On
Versions: 1 2 3 4 5 6 7 8 9 10 11 12 13 14 15 16 17 18 19 20 21 22 23 24 25 26 27 28 29 30 31 32 33 34 35 36 37 38 39 40 41 42 43 44 45 46 47 48 49 50
000
ASUS41 KCTP 282010
RWRCTP

REGIONAL WEATHER ROUNDUP
NATIONAL WEATHER SERVICE STATE COLLEGE PA
300 PM EST FRI NOV 28 2014

Note: "fair" indicates few or no clouds below 12,000 feet with no
significant weather and/or obstructions to visibility.

* = STATION THAT DOES NOT REPORT PRECIPITATION /E.G. RAIN...SNOW...ETC/
    THUNDER OR FOG.

PAZ002>004-007>009-013>016-020>023-029>032-282100-
WESTERN PENNSYLVANIA

CITY           SKY/WX    TMP DP  RH WIND       PRES   REMARKS
ERIE           CLOUDY    28  13  53 SW10      30.23F
MEADVILLE      CLOUDY    24  13  62 SW7       30.20S
FRANKLIN*      CLOUDY    25  12  58 SW10      30.21S WCI  15
NEW CASTLE       N/A     26  14  60 SW5       30.25F
BEAVER COUNTY  NOT AVBL
BUTLER*        CLOUDY    27  12  54 SW7       30.24S
PITTSBURGH INT PTSUNNY   28  15  58 W9        30.24F
PITTSBURGH     MOSUNNY   28  12  51 SW13G20   30.23F
INDIANA*       MOSUNNY   27  12  54 NW7       30.25F
LATROBE        MOSUNNY   27  14  59 W7        30.26F
WASHINGTON CO* CLOUDY    28  16  59 SW7       30.26S
$$

PAZ004>006-010>012-017>019-024>028-033>037-041-042-045-046-049>053-282100-
CENTRAL PENNSYLVANIA

CITY           SKY/WX    TMP DP  RH WIND       PRES   REMARKS
BRADFORD       CLOUDY    22  10  60 NW9       30.12F WCI  12
DUBOIS         CLOUDY    23  13  65 W9        30.16F WCI  13
CLEARFIELD     CLOUDY    25  14  63 W7        30.19S
JOHNSTOWN      SUNNY     22  10  60 W14       30.15F WCI   9
ALTOONA        MOSUNNY   27  14  58 W12       30.20S
STATE COLLEGE  PTSUNNY   36  14  41 W15       30.20S
WILLIAMSPORT   SUNNY     33  12  41 W7        30.19S
SELINSGROVE    CLOUDY    33  16  49 W7        30.22S
FT INDIANTOWN  CLOUDY    33  17  51 NW8       30.23R
CAPITAL CITY   MOSUNNY   36  14  40 NW13      30.24S
HARRISBURG     PTSUNNY   35  16  45 NW9       30.23S
YORK           SUNNY     34  17  50 W7        30.23S
$$

PAZ038>040-043-044-047-048-054-055-060>062-067>071-282100-
EASTERN PENNSYLVANIA

CITY           SKY/WX    TMP DP  RH WIND       PRES   REMARKS
SCRANTON       MOSUNNY   28  12  51 NW16      30.18S
MOUNT POCONO   MOSUNNY   24   9  52 NW10      30.10R WCI  14
ALLENTOWN      MOSUNNY   33  13  43 NW12      30.20S
QUAKERTOWN*    CLEAR     32  16  51 NW7       30.21R
READING        MOSUNNY   33  18  53 NW8       30.22R
LANCASTER      PTSUNNY   34  18  52 NW15      30.23R
COATESVILLE    PTCLDY    32  16  51 NW13G21   30.22R
POTTSTOWN      MOSUNNY   32  17  54 W9        30.23R
BLUE BELL      SUNNY     36  19  51 W9        30.21R
DOYLESTOWN     SUNNY     33  14  45 NW15G24   30.19S
WILLOW GROVE   NOT AVBL
NORTH PHILA    SUNNY     38  13  35 NW13      30.23R
PHILADELPHIA   MOSUNNY   37  14  38 W17       30.23S
$$



USA.gov is the U.S. government's official web portal to all federal, state and local government web resources and services.